[[{"header":{"parameterUnit":"m.s-1","parameterCategory":1,"la1":30.2991,"la2":30.254,"lo1":-89.0895,"lo2":-89.0444,"dy":0.0017,"dx":0.0017,"nx":28,"ny":28,"refTime":"2025-04-18T03:00:00:Z","depth":0,"parameterNumber":2,"parameterNumberName":"U-component_of_WINDS"},"data":[0,0,0,0,0,0,0,0,0,0,0,0,0,0,0,0,0,0,0,0,0,0,0,0,0,0,0,0,0,0,0,0,0,0,0,0,0,0,0,0,0,0,0,0,0,0,0,0,0,0,0,0,0,0,0,0,0,0,-4.2629,-4.263,0,-4.2732,-4.2733,-4.2734,-4.2711,-4.2709,-4.2707,-4.2705,-4.281,-4.2815,-4.2819,0,0,0,0,0,0,0,0,0,0,0,0,0,-4.2414,-4.2418,-4.2629,-4.263,-4.2632,-4.2732,-4.2733,-4.2734,-4.2711,-4.2709,-4.2707,-4.2704,-4.2809,-4.2814,-4.282,0,0,0,0,0,0,0,0,0,0,0,0,0,-4.2511,-4.242,-4.2629,-4.2632,-4.2634,-4.2731,-4.2733,-4.2735,-4.2712,-4.2709,-4.2706,-4.2703,-4.2807,-4.2813,-4.282,-4.2921,0,0,-4.2841,-4.2844,0,0,0,0,0,0,0,0,-4.2506,-4.2519,-4.263,-4.2632,-4.2634,-4.2706,-4.2696,-4.2797,-4.2712,-4.2682,-4.2705,-4.2702,-4.2778,-4.2787,-4.2812,-4.2926,-4.293,-4.2842,-4.2846,-4.2849,-4.2851,0,0,0,0,0,0,0,-4.2499,-4.2515,-4.267,-4.2632,-4.2634,-4.2629,-4.2639,-4.2715,-4.2745,-4.2684,-4.2683,-4.2696,-4.2778,-4.2806,-4.2815,-4.2932,-4.2842,-4.2848,-4.2852,-4.2855,-4.3134,-4.3137,0,0,0,0,0,0,-4.2491,-4.2509,-4.2666,-4.2673,-4.2561,-4.2635,-4.2647,-4.2685,-4.2744,-4.275,-4.2698,-4.2694,-4.2795,-4.2807,-4.2818,-4.294,-4.2849,-4.2856,-4.2859,-4.313,-4.3134,-4.3138,0,0,0,0,0,0,-4.2486,-4.2505,-4.2662,-4.2591,-4.261,-4.2642,-4.2685,-4.2689,-4.2717,-4.2754,-4.2759,-4.2721,-4.2794,-4.2809,-4.2896,-4.2943,-4.2859,-4.2865,-4.3127,-4.3132,-4.3136,-4.3183,0,0,0,0,0,0,-4.248,-4.2504,-4.2542,-4.2592,-4.2614,-4.2738,-4.2688,-4.2693,-4.2729,-4.2725,-4.2777,-4.2783,-4.2792,-4.2886,-4.2903,-4.2951,-4.287,-4.3122,-4.3129,-4.3135,-4.3178,-4.3189,-4.3199,0,0,0,0,0,-4.2473,-4.2551,-4.2544,-4.2563,-4.2663,-4.2741,-4.2753,-4.2763,-4.2733,-4.2771,-4.2796,-4.2781,-4.2936,-4.2895,-4.2914,-4.2965,-4.3119,-4.3127,-4.3134,-4.3173,-4.3187,-4.3199,0,0,0,0,0,0,-4.2506,-4.2558,-4.255,-4.2647,-4.269,-4.2737,-4.2786,-4.2778,-4.283,-4.2824,-4.2834,-4.2846,-4.2934,-4.2959,-4.2912,-4.3066,-4.3023,-4.3035,-4.3046,-4.306,-4.307,-4.3062,-4.2876,0,0,0,0,0,-4.2524,-4.2583,-4.2625,-4.2707,-4.2729,-4.2754,-4.2788,-4.2792,-4.2836,-4.2854,-4.2885,-4.2929,-4.2987,-4.3025,-4.3081,-4.3182,-4.3193,-4.3227,-4.3237,-4.3246,-4.3255,-4.3311,-4.3326,-4.3162,-4.3162,-4.3162,0,0,-4.2563,-4.2599,-4.2635,-4.2714,-4.2748,-4.2808,-4.2769,-4.2835,-4.288,-4.2864,-4.2948,-4.2972,-4.3022,-4.3116,-4.316,-4.3139,-4.3303,-4.3255,-4.3262,-4.3267,-4.332,-4.3335,-4.3349,-4.3167,-4.3166,-4.3165,0,0,-4.2665,-4.2698,-4.2769,-4.2804,-4.2855,-4.2871,-4.2889,-4.2937,-4.2953,-4.3037,-4.3027,-4.3081,-4.3182,-4.3217,-4.3249,-4.3366,-4.3354,-4.3384,-4.3439,-4.3493,-4.3506,-4.3517,-4.3558,-4.3573,-4.3393,-4.3393,-4.3394,0,-4.2706,-4.2797,-4.2807,-4.2874,-4.2909,-4.2898,-4.2971,-4.3004,-4.3071,-4.3095,-4.3072,-4.3198,-4.3231,-4.3334,-4.3362,-4.3388,-4.3408,-4.3377,-4.3503,-4.3515,-4.3526,-4.3565,-4.358,-4.3397,-4.3396,-4.3396,-4.3396,0,-4.2845,-4.2909,-4.296,-4.3025,-4.3066,-4.3136,-4.3156,-4.3197,-4.3198,-4.3217,-4.3304,-4.3343,-4.3407,-4.3432,-4.3433,-4.3535,-4.3521,-4.3501,-4.3458,-4.3544,-4.3581,-4.3596,-4.3401,-4.34,-4.3399,-4.3398,0,0,-4.2969,-4.3039,-4.3058,-4.3087,-4.3144,-4.3193,-4.3262,-4.3325,-4.3359,-4.3407,-4.3465,-4.3551,-4.3533,-4.3568,-4.3574,-4.3621,-4.3711,-4.3595,-4.3597,-4.3614,-4.3825,-4.3839,-4.3856,-4.3705,-4.3707,-4.371,-4.3821,0,-4.3074,-4.3196,-4.3207,-4.3316,-4.3375,-4.3367,-4.3427,-4.3469,-4.3489,-4.3542,-4.3564,-4.3625,-4.3597,-4.3618,-4.3665,-4.369,-4.3753,-4.3683,-4.3758,-4.3761,-4.3744,-4.3876,-4.389,-4.3993,-4.3835,-4.3838,-4.384,0,-4.3213,-4.3264,-4.3379,-4.3428,-4.3453,-4.3507,-4.3566,-4.3617,-4.3664,-4.3675,-4.3716,-4.3716,-4.3788,-4.3744,-4.3843,-4.3795,-4.3827,-4.3844,-4.3848,-4.3854,-4.3804,-4.3884,-4.4026,-4.4041,-4.3863,-4.3861,-4.3859,0,-4.329,-4.3388,-4.347,-4.3495,-4.3554,-4.3593,-4.3619,-4.3664,-4.3701,-4.3752,-4.3776,-4.3836,-4.3868,-4.3914,-4.393,-4.3897,-4.4029,-4.3986,-4.404,-4.4039,-4.4066,-4.4064,-4.4214,-4.409,-4.4089,-4.4089,-4.4089,0,-4.3406,-4.3477,-4.3505,-4.3555,-4.3634,-4.3647,-4.3725,-4.375,-4.379,-4.3844,-4.3842,-4.3893,-4.3912,-4.3967,-4.398,-4.406,-4.4075,-4.4086,-4.4088,-4.4086,-4.4084,-4.4105,-4.4098,-4.4093,-4.4092,-4.4091,-4.4091,0,-4.3505,-4.3527,-4.3615,-4.3664,-4.3678,-4.3734,-4.3776,-4.3825,-4.3845,-4.3914,-4.3931,-4.3963,-4.4028,-4.4049,-4.4127,-4.4136,-4.4229,-4.4226,-4.4213,-4.4213,-4.4265,-4.4259,-4.4432,-4.4456,-4.4317,-4.4318,-4.432,0,-4.3576,-4.363,-4.3685,-4.3722,-4.375,-4.3809,-4.3846,-4.3862,-4.3902,-4.396,-4.4002,-4.4066,-4.4118,-4.4222,-4.4252,-4.4312,-4.4309,-4.4366,-4.4318,-4.4314,-4.4309,-4.4305,-4.431,-4.4374,-4.4376,-4.4377,-4.4378,0,-4.3701,-4.3709,-4.3764,-4.3823,-4.3868,-4.3915,-4.396,-4.3991,-4.4013,-4.4058,-4.4124,-4.4164,-4.4244,-4.4308,-4.437,-4.4397,-4.4392,-4.4393,-4.4409,-4.4405,-4.4395,-4.44,-4.4236,-4.4389,-4.4388,-4.4387,-4.4386,-4.4386,-4.3788,-4.3835,-4.3881,-4.3942,-4.3978,-4.4021,-4.4069,-4.4095,-4.4151,-4.4217,-4.4223,-4.4294,-4.4341,-4.4423,-4.4454,-4.451,-4.4494,-4.4517,-4.4522,-4.4527,-4.4531,-4.4388,-4.4522,-4.4522,-4.4521,-4.4521,-4.4521,0,-4.3911,-4.3941,-4.3997,-4.406,-4.4109,-4.41,-4.415,-4.4191,-4.4253,-4.4298,-4.4349,-4.4425,-4.4487,-4.4523,-4.4585,-4.4623,-4.4622,-4.4639,-4.4636,-4.4642,-4.4542,-4.4522,-4.4639,-4.4639,-4.4639,-4.4639,-4.4639,-4.4639,-4.3981,-4.4061,-4.4075,-4.4173,-4.4202,-4.4272,-4.4301,-4.4341,-4.4376,-4.4461,-4.4513,-4.4536,-4.4577,-4.4642,-4.4699,-4.4708,-4.473,-4.4749,-4.4756,-4.4661,-4.4649,-4.4638,-4.4619,-4.4754,-4.4754,-4.4851,-4.4852,-4.4853]},{"header":{"parameterUnit":"m.s-1","parameterCategory":1,"la1":30.2991,"la2":30.254,"lo1":-89.0895,"lo2":-89.0444,"dy":0.0017,"dx":0.0017,"nx":28,"ny":28,"refTime":"2025-04-18T03:00:00:Z","depth":0,"parameterNumber":3,"parameterNumberName":"V-component_of_WINDS"},"data":[0,0,0,0,0,0,0,0,0,0,0,0,0,0,0,0,0,0,0,0,0,0,0,0,0,0,0,0,0,0,0,0,0,0,0,0,0,0,0,0,0,0,0,0,0,0,0,0,0,0,0,0,0,0,0,0,0,0,4.1152,4.1152,0,4.1191,4.1192,4.1192,4.1158,4.1156,4.1155,4.1153,4.1189,4.1192,4.1194,0,0,0,0,0,0,0,0,0,0,0,0,0,4.1044,4.1046,4.1152,4.1152,4.1153,4.1191,4.1192,4.1192,4.1158,4.1156,4.1154,4.1153,4.1189,4.1191,4.1194,0,0,0,0,0,0,0,0,0,0,0,0,0,4.1088,4.1047,4.1152,4.114,4.114,4.1191,4.1192,4.1192,4.1158,4.1156,4.1154,4.1152,4.1188,4.1191,4.1194,4.1258,0,0,4.1205,4.1206,0,0,0,0,0,0,0,0,4.1085,4.1092,4.1142,4.1141,4.1141,4.1167,4.1167,4.1214,4.1159,4.1151,4.1153,4.1151,4.1184,4.1187,4.1199,4.1259,4.1261,4.1205,4.1207,4.1209,4.121,0,0,0,0,0,0,0,4.1082,4.109,4.1167,4.1142,4.1142,4.1132,4.1136,4.1175,4.1178,4.1152,4.1149,4.1155,4.1183,4.1196,4.12,4.1261,4.1205,4.1208,4.121,4.1211,4.1376,4.1378,0,0,0,0,0,0,4.1081,4.1087,4.1166,4.1168,4.1107,4.1136,4.114,4.1161,4.1178,4.1179,4.1156,4.1153,4.1191,4.1196,4.1201,4.1276,4.1209,4.1212,4.1214,4.1374,4.1376,4.1379,0,0,0,0,0,0,4.1079,4.1088,4.1164,4.1127,4.1136,4.114,4.1163,4.1163,4.1176,4.1182,4.1182,4.1169,4.119,4.1196,4.1244,4.1277,4.1213,4.1216,4.1371,4.1374,4.1378,4.1427,0,0,0,0,0,0,4.1076,4.1088,4.1112,4.1128,4.1139,4.1208,4.1166,4.1165,4.1182,4.1178,4.1194,4.1194,4.1188,4.1239,4.1248,4.128,4.1219,4.1368,4.1372,4.1377,4.1422,4.1432,4.144,0,0,0,0,0,4.1072,4.1123,4.1114,4.1123,4.117,4.121,4.1216,4.1209,4.1185,4.1209,4.1213,4.1194,4.1272,4.1244,4.1253,4.1288,4.1366,4.1371,4.1376,4.1418,4.143,4.1439,0,0,0,0,0,0,4.1109,4.1125,4.1115,4.1173,4.1191,4.1204,4.1235,4.1221,4.1245,4.124,4.123,4.1234,4.1285,4.1291,4.126,4.135,4.1315,4.1322,4.1344,4.1355,4.1363,4.136,4.1222,0,0,0,0,0,4.1125,4.1158,4.1169,4.122,4.1229,4.1231,4.1248,4.1242,4.1259,4.1266,4.1273,4.129,4.1318,4.1337,4.1363,4.1424,4.1426,4.1452,4.146,4.1467,4.1473,4.1506,4.1517,4.1396,4.1396,4.1396,0,0,4.1156,4.1169,4.119,4.1228,4.124,4.1274,4.1237,4.1274,4.1298,4.1271,4.1317,4.1324,4.1341,4.1396,4.1421,4.1403,4.1508,4.1474,4.148,4.1482,4.1513,4.1524,4.1534,4.14,4.1399,4.1398,0,0,4.123,4.1243,4.1287,4.1302,4.1323,4.1324,4.1334,4.135,4.1354,4.1401,4.1382,4.141,4.1459,4.1473,4.1486,4.1567,4.155,4.1576,4.1621,4.1653,4.1662,4.1671,4.17,4.171,4.1582,4.1583,4.1583,0,4.1266,4.1317,4.1311,4.135,4.1367,4.1346,4.139,4.1404,4.1431,4.1443,4.1424,4.1486,4.1496,4.1554,4.1574,4.1586,4.1597,4.1574,4.1662,4.167,4.1678,4.1705,4.1716,4.1586,4.1585,4.1585,4.1585,0,4.136,4.1395,4.1428,4.1458,4.1478,4.1519,4.1519,4.1541,4.1533,4.1536,4.1584,4.1596,4.1625,4.1638,4.163,4.1695,4.1684,4.1664,4.1628,4.1693,4.1718,4.1729,4.159,4.1589,4.1588,4.1587,0,0,4.1457,4.1484,4.1496,4.151,4.1532,4.1559,4.1599,4.1629,4.1648,4.1668,4.1701,4.1744,4.1726,4.1741,4.1735,4.1763,4.1827,4.1739,4.1739,4.1754,4.1899,4.1914,4.1926,4.1816,4.1818,4.182,4.1898,0,4.1532,4.1603,4.16,4.1666,4.1699,4.1681,4.1716,4.1733,4.1737,4.1764,4.1768,4.1799,4.1772,4.1781,4.1809,4.1813,4.1855,4.1808,4.1845,4.1847,4.1841,4.194,4.1956,4.2028,4.1907,4.1909,4.191,0,4.1628,4.1654,4.1725,4.1743,4.1757,4.1789,4.1816,4.1843,4.1862,4.1863,4.1881,4.1871,4.191,4.1875,4.1929,4.1897,4.1912,4.1917,4.192,4.1922,4.1882,4.1945,4.2052,4.2062,4.1926,4.1925,4.1924,0,4.1692,4.1744,4.1793,4.1806,4.1829,4.1851,4.1862,4.1879,4.1897,4.1921,4.1933,4.1961,4.1976,4.1997,4.1994,4.1968,4.2049,4.2013,4.2051,4.2051,4.2067,4.2066,4.2178,4.2079,4.2079,4.2078,4.2078,0,4.1776,4.182,4.1823,4.1853,4.1901,4.1897,4.1944,4.1952,4.1968,4.1998,4.1984,4.2012,4.2007,4.2035,4.2033,4.2078,4.2085,4.2086,4.2085,4.2088,4.2087,4.2097,4.2091,4.2081,4.2081,4.208,4.208,0,4.1855,4.1859,4.1911,4.193,4.1935,4.197,4.1985,4.2013,4.2017,4.2056,4.2064,4.207,4.2102,4.2102,4.2139,4.2137,4.2193,4.2186,4.2187,4.2185,4.2223,4.2219,4.2344,4.236,4.225,4.2252,4.2252,0,4.1908,4.1941,4.1964,4.1985,4.1997,4.203,4.2049,4.2046,4.2067,4.2092,4.2117,4.2149,4.2174,4.2228,4.2234,4.2262,4.2255,4.2297,4.2259,4.2261,4.2256,4.2254,4.2257,4.2304,4.2306,4.2307,4.2307,0,4.2001,4.2002,4.2032,4.2063,4.2087,4.2111,4.2132,4.2149,4.2149,4.2173,4.2207,4.2227,4.2266,4.2298,4.2325,4.2334,4.2321,4.232,4.233,4.2332,4.2331,4.2332,4.2207,4.2316,4.2315,4.2315,4.2314,4.2314,4.2069,4.2098,4.2119,4.2153,4.2169,4.2191,4.2218,4.2226,4.2255,4.2288,4.2284,4.2323,4.2341,4.2377,4.2389,4.2418,4.2403,4.2418,4.2422,4.2425,4.2429,4.2327,4.2423,4.2423,4.2423,4.2423,4.2422,0,4.2161,4.2175,4.2206,4.2238,4.2265,4.2252,4.2275,4.2298,4.2332,4.2352,4.2378,4.2417,4.2448,4.2458,4.2488,4.2509,4.2504,4.2517,4.2515,4.2517,4.2441,4.2429,4.2521,4.2521,4.2521,4.2521,4.2521,4.2521,4.2213,4.2262,4.2266,4.2323,4.2335,4.2374,4.2389,4.2408,4.2423,4.2469,4.2495,4.2502,4.2517,4.2548,4.2576,4.2578,4.2589,4.2605,4.2605,4.2533,4.2523,4.2513,4.2502,4.2608,4.2608,4.2679,4.2679,4.268]}]]